This demonstration page uses our WeatherBlox Daily Observations layout. Learn more.

39.92423, -83.80882

Hourly Observations for December 11, 2018

Temp ( °F °C ) Dew Point ( °F °C ) Humidity (%) Winds ( mph kmh ) Pressure ( in mb ) Visibility ( mi km ) Precip ( " mm )
12:56 am 00:56 Cloudy with Mist and Fog 20 -6.7 19 -7.2 96 96 SSW 8 13 30.24 1024 3 4.82802 0 0
1:32 am 01:32 Cloudy with Mist and Fog 19 -7 19 -7 100 100 WSW 6 9 30.27 1025 3 4.82802 0 0
1:56 am 01:56 Cloudy with Mist and Fog 20 -6.7 19 -7.2 96 96 SW 10 17 30.24 1024 3 4.82802 0 0
2:16 am 02:16 Cloudy with Mist and Fog 19 -7 19 -7 100 100 SSW 7 11 30.27 1025 2.5 4.02335 0 0
2:56 am 02:56 Cloudy with Mist and Fog 19 -7.2 19 -7.2 100 100 SW 8 13 30.24 1024 2 3.21868 0 0
3:56 am 03:56 Cloudy with Mist and Fog 19 -7.2 19 -7.2 100 100 SW 8 13 30.23 1024 2.5 4.02335 0 0
4:33 am 04:33 Mostly Cloudy with Mist and Fog 19 -7 18 -8 93 93 WSW 7 11 30.27 1025 3 4.82802 0 0
4:40 am 04:40 Partly Cloudy with Mist and Fog 18 -8 18 -8 100 100 WSW 7 11 30.27 1025 3 4.82802 0 0
4:56 am 04:56 Clear with Mist and Fog 18 -7.8 17 -8.3 96 96 WSW 6 9 30.24 1024 3 4.82802 0 0
5:56 am 05:56 Clear with Mist and Fog 17 -8.3 17 -8.3 100 100 SSW 7 11 30.23 1024 3 4.82802 0 0
6:56 am 06:56 Clear with Mist and Fog 17 -8.3 16 -8.9 95 95 SSW 8 13 30.22 1024 4 6.43736 0 0
7:46 am 07:46 Clear with Mist and Fog 18 -8 18 -8 100 100 SW 6 9 30.27 1025 2.5 4.02335 0 0
7:56 am 07:56 Sunny with Mist and Fog 17 -8.3 16 -8.9 95 95 SW 6 9 30.24 1024 2.5 4.02335 0 0
8:56 am 08:56 Sunny with Mist and Fog 20 -6.7 19 -7.2 96 96 SW 8 13 30.24 1024 2.5 4.02335 0 0
9:31 am 09:31 Sunny with Mist and Fog 21 -6 21 -6 100 100 SW 10 17 30.27 1025 3 4.82802 0 0
9:56 am 09:56 Sunny with Mist and Fog 25 -3.9 22 -5.6 88 88 SW 14 22 30.22 1023 4 6.43736 0 0
10:56 am 10:56 Hazy 29 -1.7 24 -4.4 82 82 SW 12 19 30.19 1022 6 9.65604 0 0
11:56 am 11:56 Sunny 34 1.1 24 -4.4 67 67 SW 17 28 30.15 1021 10 16.0934 0 0
12:56 pm 12:56 Sunny 36 2.2 25 -3.9 64 64 WSW 18 30 30.12 1020 10 16.0934 0 0
1:56 pm 13:56 Sunny 38 3.3 26 -3.3 62 62 WSW 18 30 30.09 1019 10 16.0934 0 0
2:56 pm 14:56 Sunny 39 3.9 26 -3.3 60 60 WSW 17 28 30.08 1019 10 16.0934 0 0
3:56 pm 15:56 Sunny 39 3.9 26 -3.3 60 60 WSW 17 28 30.08 1019 10 16.0934 0 0
4:56 pm 16:56 Sunny 38 3.3 26 -3.3 62 62 WSW 14 22 30.09 1019 10 16.0934 0 0
6:56 pm 18:56 Clear 36 2.2 26 -3.3 67 67 WSW 9 15 30.1 1019 10 16.0934 0 0
7:56 pm 19:56 Clear 34 1.1 26 -3.3 73 73 WSW 7 11 30.11 1020 10 16.0934 0 0
8:56 pm 20:56 Clear 32 0 26 -3.3 79 79 WSW 7 11 30.12 1020 10 16.0934 0 0
9:56 pm 21:56 Clear 31 -0.6 26 -3.3 82 82 W 8 13 30.13 1020 10 16.0934 0 0
10:56 pm 22:56 Clear 30 -1.1 25 -3.9 82 82 W 5 7 30.13 1020 10 16.0934 0 0
11:56 pm 23:56 Clear 26 -3.3 23 -5 88 88 Calm 30.13 1020 10 16.0934 0 0

Powered by AerisWeather